| time (UTC) | temp F | wind direction | speed MPH | gust MPH | rain 1hr in | rain 24hr in | rain mn in | humidity % | barometer mb |
| 20260505223049 | 76 | 275 | 19.0 | 27.0 | 0.00 | 0.00 | 0.00 | 32 | 1004.5 |
| 20260505221539 | 76 | 294 | 19.0 | 29.0 | 0.00 | 0.00 | 0.00 | 32 | 1004.7 |
| 20260505220041 | 76 | 244 | 19.0 | 29.0 | 0.00 | 0.00 | 0.00 | 31 | 1004.7 |
| 20260505214541 | 75 | 295 | 13.0 | 28.0 | 0.00 | 0.00 | 0.00 | 33 | 1004.7 |
| 20260505213033 | 75 | 296 | 13.0 | 25.0 | 0.00 | 0.00 | 0.00 | 33 | 1005.1 |
| 20260505211531 | 75 | 306 | 16.0 | 22.0 | 0.00 | 0.00 | 0.00 | 33 | 1005.5 |
| 20260505210030 | 75 | 304 | 11.0 | 21.0 | 0.00 | 0.00 | 0.00 | 32 | 1005.8 |
| 20260505204534 | 75 | 279 | 14.0 | 24.0 | 0.00 | 0.00 | 0.00 | 33 | 1006.1 |
| 20260505203031 | 74 | 296 | 12.0 | 22.0 | 0.00 | 0.00 | 0.00 | 34 | 1006.1 |
| 20260505201528 | 74 | 245 | 12.0 | 25.0 | 0.00 | 0.00 | 0.00 | 34 | 1006.4 |
| 20260505200038 | 74 | 302 | 10.0 | 23.0 | 0.00 | 0.00 | 0.00 | 35 | 1006.4 |
| 20260505194527 | 73 | 306 | 16.0 | 23.0 | 0.00 | 0.00 | 0.00 | 36 | 1006.6 |
| 20260505193026 | 74 | 292 | 14.0 | 29.0 | 0.00 | 0.00 | 0.00 | 34 | 1007.0 |
| 20260505191526 | 74 | 259 | 14.0 | 32.0 | 0.00 | 0.00 | 0.00 | 33 | 1007.2 |
| 20260505190034 | 73 | 308 | 21.0 | 31.0 | 0.00 | 0.00 | 0.00 | 33 | 1007.2 |
| 20260505184524 | 74 | 265 | 12.0 | 22.0 | 0.00 | 0.00 | 0.00 | 33 | 1007.1 |
| 20260505183022 | 76 | 295 | 14.0 | 20.0 | 0.00 | 0.00 | 0.00 | 29 | 1007.1 |
| 20260505181521 | 74 | 257 | 12.0 | 26.0 | 0.00 | 0.00 | 0.00 | 31 | 1007.1 |
| 20260505180018 | 75 | 255 | 14.0 | 23.0 | 0.00 | 0.00 | 0.00 | 29 | 1007.3 |
| 20260505174516 | 73 | 266 | 8.0 | 23.0 | 0.00 | 0.00 | 0.00 | 34 | 1007.1 |
| 20260505173015 | 72 | 235 | 9.0 | 16.0 | 0.00 | 0.00 | 0.00 | 36 | 1007.1 |
| 20260505171521 | 70 | 275 | 9.0 | 14.0 | 0.00 | 0.00 | 0.00 | 38 | 1007.0 |
| 20260505170016 | 69 | 283 | 8.0 | 14.0 | 0.00 | 0.00 | 0.00 | 39 | 1007.1 |
| 20260505164511 | 68 | 269 | 8.0 | 11.0 | 0.00 | 0.00 | 0.00 | 40 | 1007.2 |
| 20260505163011 | 68 | 319 | 3.0 | 13.0 | 0.00 | 0.00 | 0.00 | 41 | 1007.1 |
| 20260505161509 | 67 | 355 | 6.0 | 11.0 | 0.00 | 0.00 | 0.00 | 42 | 1007.1 |
| 20260505153006 | 66 | 320 | 8.0 | 13.0 | 0.00 | 0.00 | 0.00 | 44 | 1007.2 |
| 20260505151505 | 65 | 277 | 8.0 | 13.0 | 0.00 | 0.00 | 0.00 | 46 | 1007.3 |
| 20260505130103 | 64 | 309 | 9.0 | 16.0 | 0.00 | 0.00 | 0.00 | 47 | 1007.1 |
| 20260505124540 | 64 | 317 | 6.0 | 13.0 | 0.00 | 0.00 | 0.00 | 45 | 1006.9 |
| 20260505123039 | 64 | 335 | 9.0 | 15.0 | 0.00 | 0.00 | 0.00 | 45 | 1006.7 |
| 20260505121533 | 64 | 318 | 11.0 | 20.0 | 0.00 | 0.00 | 0.00 | 45 | 1006.5 |
| 20260505120030 | 64 | 317 | 9.0 | 20.0 | 0.00 | 0.00 | 0.00 | 45 | 1006.2 |
| 20260505114528 | 65 | 311 | 11.0 | 19.0 | 0.00 | 0.00 | 0.00 | 44 | 1006.2 |
| 20260505113027 | 65 | 312 | 13.0 | 21.0 | 0.00 | 0.00 | 0.00 | 43 | 1006.1 |
| 20260505111534 | 65 | 291 | 13.0 | 18.0 | 0.00 | 0.00 | 0.00 | 43 | 1006.0 |
| 20260505101518 | 66 | 317 | 13.0 | 18.0 | 0.00 | 0.00 | 0.00 | 41 | 1005.6 |
| 20260505100018 | 67 | 303 | 14.0 | 26.0 | 0.00 | 0.00 | 0.00 | 41 | 1005.3 |
| 20260505094515 | 67 | 309 | 12.0 | 18.0 | 0.00 | 0.00 | 0.00 | 40 | 1005.6 |
| 20260505093011 | 67 | 299 | 11.0 | 18.0 | 0.00 | 0.00 | 0.00 | 40 | 1005.5 |
| 20260505091509 | 67 | 314 | 12.0 | 17.0 | 0.00 | 0.00 | 0.00 | 39 | 1005.7 |
| 20260505090005 | 68 | 312 | 9.0 | 18.0 | 0.00 | 0.00 | 0.00 | 38 | 1006.0 |
| 20260505084503 | 68 | 315 | 8.0 | 16.0 | 0.00 | 0.00 | 0.00 | 37 | 1006.3 |
| 20260505083003 | 68 | 314 | 11.0 | 18.0 | 0.00 | 0.00 | 0.00 | 36 | 1006.0 |
| 20260505081615 | 69 | 320 | 12.0 | 20.0 | 0.00 | 0.00 | 0.00 | 35 | 1006.1 |
| 20260505080109 | 69 | 321 | 15.0 | 21.0 | 0.00 | 0.00 | 0.00 | 34 | 1006.3 |
| 20260505074554 | 70 | 291 | 13.0 | 21.0 | 0.00 | 0.00 | 0.00 | 33 | 1006.6 |
| 20260505073052 | 70 | 302 | 18.0 | 24.0 | 0.00 | 0.00 | 0.00 | 31 | 1006.8 |
| 20260505071553 | 71 | 290 | 12.0 | 20.0 | 0.00 | 0.00 | 0.00 | 27 | 1006.8 |
| 20260505070045 | 72 | 300 | 9.0 | 13.0 | 0.00 | 0.00 | 0.00 | 26 | 1006.3 |
| 20260505064543 | 72 | 291 | 10.0 | 14.0 | 0.00 | 0.00 | 0.00 | 25 | 1006.1 |
| 20260505063040 | 73 | 282 | 7.0 | 12.0 | 0.00 | 0.00 | 0.00 | 24 | 1006.1 |
| 20260505061536 | 73 | 292 | 8.0 | 17.0 | 0.00 | 0.00 | 0.00 | 24 | 1006.1 |
| 20260505060032 | 74 | 283 | 11.0 | 16.0 | 0.00 | 0.00 | 0.00 | 23 | 1006.2 |
| 20260505054548 | 74 | 336 | 10.0 | 19.0 | 0.00 | 0.00 | 0.00 | 23 | 1006.3 |
| 20260505053042 | 74 | 312 | 11.0 | 19.0 | 0.00 | 0.00 | 0.00 | 22 | 1006.1 |
| 20260505051538 | 75 | 311 | 11.0 | 17.0 | 0.00 | 0.00 | 0.00 | 21 | 1006.3 |
| 20260505041529 | 78 | 267 | 14.0 | 21.0 | 0.00 | 0.00 | 0.00 | 20 | 1005.4 |
| 20260505040036 | 78 | 289 | 15.0 | 24.0 | 0.00 | 0.00 | 0.00 | 22 | 1005.5 |
| 20260505034527 | 79 | 247 | 13.0 | 23.0 | 0.00 | 0.00 | 0.00 | 22 | 1005.4 |
| 20260505033031 | 79 | 272 | 16.0 | 25.0 | 0.00 | 0.00 | 0.00 | 21 | 1005.3 |
| 20260505031526 | 79 | 271 | 12.0 | 20.0 | 0.00 | 0.00 | 0.00 | 21 | 1005.3 |
| 20260505030027 | 79 | 216 | 13.0 | 24.0 | 0.00 | 0.00 | 0.00 | 21 | 1005.3 |
| 20260505024525 | 80 | 275 | 15.0 | 24.0 | 0.00 | 0.00 | 0.00 | 21 | 1005.2 |
| 20260505023025 | 80 | 299 | 15.0 | 24.0 | 0.00 | 0.00 | 0.00 | 21 | 1005.0 |
| 20260505021526 | 80 | 255 | 14.0 | 20.0 | 0.00 | 0.00 | 0.00 | 20 | 1004.7 |
| 20260505020024 | 80 | 261 | 20.0 | 24.0 | 0.00 | 0.00 | 0.00 | 20 | 1004.6 |
| 20260505014523 | 81 | 246 | 11.0 | 19.0 | 0.00 | 0.00 | 0.00 | 19 | 1004.3 |
| 20260505013023 | 81 | 273 | 16.0 | 23.0 | 0.00 | 0.00 | 0.00 | 19 | 1004.3 |
| 20260505011522 | 82 | 264 | 17.0 | 30.0 | 0.00 | 0.00 | 0.00 | 19 | 1004.0 |
| 20260505010020 | 82 | 301 | 12.0 | 26.0 | 0.00 | 0.00 | 0.00 | 19 | 1004.1 |
| 20260505004519 | 82 | 291 | 13.0 | 28.0 | 0.00 | 0.00 | 0.00 | 18 | 1004.2 |
| 20260505003018 | 83 | 276 | 19.0 | 27.0 | 0.00 | 0.00 | 0.00 | 18 | 1004.7 |
| 20260505001515 | 83 | 306 | 15.0 | 29.0 | 0.00 | 0.00 | 0.00 | 17 | 1004.8 |
| 20260505000018 | 83 | 281 | 16.0 | 27.0 | 0.00 | 0.00 | 0.00 | 17 | 1004.7 |
| 20260504234514 | 83 | 273 | 16.0 | 26.0 | 0.00 | 0.00 | 0.00 | 17 | 1004.9 |
| 20260504233013 | 83 | 279 | 23.0 | 32.0 | 0.00 | 0.00 | 0.00 | 17 | 1004.9 |
| 20260504231511 | 84 | 291 | 18.0 | 31.0 | 0.00 | 0.00 | 0.00 | 16 | 1004.9 |
| 20260504230010 | 84 | 267 | 14.0 | 28.0 | 0.00 | 0.00 | 0.00 | 16 | 1005.0 |
| 20260504224509 | 83 | 293 | 15.0 | 31.0 | 0.00 | 0.00 | 0.00 | 16 | 1005.0 |